Time,TemperatureF,DewpointF,PressureIn,WindDirection,WindDirectionDegrees,WindSpeedMPH,WindSpeedGustMPH,Humidity,HourlyPrecipIn,Conditions,Clouds,dailyrainin,SoftwareType,DateUTC
2013-01-12 00:02:00,0.0,-5.0,30.20,NW,319,14.0,-999.0,80,-99.99,,,-99.99,,2013-01-12 07:02:00,
2013-01-12 00:12:00,0.0,-5.0,30.20,NW,319,14.0,-999.0,80,-99.99,,,-99.99,,2013-01-12 07:12:00,
2013-01-12 00:22:00,0.0,-5.0,30.20,NW,316,15.0,-999.0,80,-99.99,,,-99.99,,2013-01-12 07:22:00,
2013-01-12 00:32:00,0.0,-5.0,30.21,NW,311,15.0,-999.0,80,-99.99,,,-99.99,,2013-01-12 07:32:00,
2013-01-12 00:42:00,0.0,-5.0,30.21,NW,311,15.0,-999.0,80,-99.99,,,-99.99,,2013-01-12 07:42:00,
2013-01-12 00:52:00,0.0,-5.0,30.22,NW,313,14.0,-999.0,80,-99.99,,,-99.99,,2013-01-12 07:52:00,
2013-01-12 01:02:00,0.0,-5.0,30.22,NW,306,15.0,-999.0,80,-99.99,,,-99.99,,2013-01-12 08:02:00,
2013-01-12 01:12:00,0.0,-5.0,30.22,NW,306,15.0,-999.0,80,-99.99,,,-99.99,,2013-01-12 08:12:00,
2013-01-12 01:22:00,0.0,-5.0,30.22,NW,310,15.0,-999.0,80,-99.99,,,-99.99,,2013-01-12 08:22:00,
2013-01-12 01:32:00,0.0,-5.0,30.23,NNW,328,14.0,-999.0,80,-99.99,,,-99.99,,2013-01-12 08:32:00,
2013-01-12 01:42:00,0.0,-5.0,30.23,NNW,328,14.0,-999.0,80,-99.99,,,-99.99,,2013-01-12 08:42:00,
2013-01-12 01:53:00,0.0,-5.0,30.23,NNW,328,14.0,-999.0,80,-99.99,,,-99.99,,2013-01-12 08:53:00,
2013-01-12 02:02:00,0.0,-5.0,30.23,NW,322,18.0,-999.0,80,-99.99,,,-99.99,,2013-01-12 09:02:00,
2013-01-12 02:12:00,0.0,-5.0,30.23,NW,322,18.0,-999.0,80,-99.99,,,-99.99,,2013-01-12 09:12:00,
2013-01-12 02:22:00,0.0,-5.0,30.24,NW,319,17.0,-999.0,80,-99.99,,,-99.99,,2013-01-12 09:22:00,
2013-01-12 02:32:00,-1.0,-6.0,30.26,NNW,327,17.0,-999.0,80,-99.99,,,-99.99,,2013-01-12 09:32:00,
2013-01-12 02:42:00,-1.0,-6.0,30.26,NNW,327,17.0,-999.0,80,-99.99,,,-99.99,,2013-01-12 09:42:00,
2013-01-12 02:53:00,-1.0,-6.0,30.27,NW,315,15.0,-999.0,80,-99.99,,,-99.99,,2013-01-12 09:53:00,
2013-01-12 03:02:00,-1.0,-6.0,30.27,NNW,331,15.0,-999.0,79,-99.99,,,-99.99,,2013-01-12 10:02:00,
2013-01-12 03:12:00,-1.0,-6.0,30.27,NNW,331,15.0,-999.0,79,-99.99,,,-99.99,,2013-01-12 10:12:00,
2013-01-12 03:22:00,-1.0,-6.0,30.27,NW,323,14.0,-999.0,79,-99.99,,,-99.99,,2013-01-12 10:22:00,
2013-01-12 03:32:00,-2.0,-7.0,30.27,NW,319,13.0,-999.0,79,-99.99,,,-99.99,,2013-01-12 10:32:00,
2013-01-12 03:42:00,-2.0,-7.0,30.27,NW,319,13.0,-999.0,79,-99.99,,,-99.99,,2013-01-12 10:42:00,
2013-01-12 03:52:00,-3.0,-8.0,30.27,NW,323,12.0,-999.0,78,-99.99,,,-99.99,,2013-01-12 10:52:00,
2013-01-12 04:02:00,-3.0,-8.0,30.28,NW,318,12.0,-999.0,79,-99.99,,,-99.99,,2013-01-12 11:02:00,
2013-01-12 04:12:00,-3.0,-8.0,30.28,NW,318,12.0,-999.0,79,-99.99,,,-99.99,,2013-01-12 11:12:00,
2013-01-12 04:22:00,-3.0,-8.0,30.28,NW,318,12.0,-999.0,79,-99.99,,,-99.99,,2013-01-12 11:22:00,
2013-01-12 04:32:00,-3.0,-8.0,30.29,NW,308,10.0,-999.0,78,-99.99,,,-99.99,,2013-01-12 11:32:00,
2013-01-12 04:42:00,-3.0,-8.0,30.29,NW,308,10.0,-999.0,78,-99.99,,,-99.99,,2013-01-12 11:42:00,
2013-01-12 04:52:00,-4.0,-9.0,30.29,WNW,299,7.0,-999.0,78,-99.99,,,-99.99,,2013-01-12 11:52:00,
2013-01-12 05:03:00,-4.0,-9.0,30.29,WNW,284,8.0,-999.0,78,-99.99,,,-99.99,,2013-01-12 12:03:00,
2013-01-12 05:12:00,-4.0,-9.0,30.29,WNW,284,8.0,-999.0,78,-99.99,,,-99.99,,2013-01-12 12:12:00,
2013-01-12 05:22:00,-4.0,-9.0,30.29,WNW,292,10.0,-999.0,78,-99.99,,,-99.99,,2013-01-12 12:22:00,
2013-01-12 05:32:00,-5.0,-10.0,30.29,WNW,288,8.0,-999.0,77,-99.99,,,-99.99,,2013-01-12 12:32:00,
2013-01-12 05:42:00,-5.0,-10.0,30.29,WNW,288,8.0,-999.0,77,-99.99,,,-99.99,,2013-01-12 12:42:00,
2013-01-12 05:52:00,-5.0,-10.0,30.30,WNW,285,9.0,-999.0,78,-99.99,,,-99.99,,2013-01-12 12:52:00,
2013-01-12 06:02:00,-6.0,-11.0,30.30,WNW,291,7.0,-999.0,78,-99.99,,,-99.99,,2013-01-12 13:02:00,
2013-01-12 06:12:00,-6.0,-11.0,30.30,WNW,291,7.0,-999.0,78,-99.99,,,-99.99,,2013-01-12 13:12:00,
2013-01-12 06:22:00,-6.0,-11.0,30.30,WNW,288,7.0,-999.0,77,-99.99,,,-99.99,,2013-01-12 13:22:00,
2013-01-12 06:33:00,-6.0,-11.0,30.31,West,271,8.0,-999.0,78,-99.99,,,-99.99,,2013-01-12 13:33:00,
2013-01-12 06:42:00,-6.0,-11.0,30.31,West,271,8.0,-999.0,78,-99.99,,,-99.99,,2013-01-12 13:42:00,
2013-01-12 06:53:00,-6.0,-11.0,30.31,WNW,282,8.0,-999.0,77,-99.99,,,-99.99,,2013-01-12 13:53:00,
2013-01-12 07:02:00,-6.0,-11.0,30.32,West,281,8.0,-999.0,78,-99.99,,,-99.99,,2013-01-12 14:02:00,
2013-01-12 07:12:00,-6.0,-11.0,30.32,West,281,8.0,-999.0,78,-99.99,,,-99.99,,2013-01-12 14:12:00,
2013-01-12 07:22:00,-7.0,-12.0,30.33,WNW,296,9.0,-999.0,78,-99.99,,,-99.99,,2013-01-12 14:22:00,
2013-01-12 07:33:00,-7.0,-12.0,30.34,West,271,6.0,-999.0,77,-99.99,,,-99.99,,2013-01-12 14:33:00,
2013-01-12 07:43:00,-7.0,-12.0,30.34,West,271,6.0,-999.0,77,-99.99,,,-99.99,,2013-01-12 14:43:00,
2013-01-12 07:53:00,-7.0,-12.0,30.34,WNW,294,6.0,-999.0,78,-99.99,,,-99.99,,2013-01-12 14:53:00,
2013-01-12 08:03:00,-7.0,-12.0,30.35,WNW,294,3.0,-999.0,78,-99.99,,,-99.99,,2013-01-12 15:03:00,
2013-01-12 08:12:00,-7.0,-12.0,30.35,WNW,294,3.0,-999.0,78,-99.99,,,-99.99,,2013-01-12 15:12:00,
2013-01-12 08:22:00,-6.0,-11.0,30.35,WNW,288,5.0,-999.0,79,-99.99,,,-99.99,,2013-01-12 15:22:00,
2013-01-12 08:33:00,-5.0,-10.0,30.36,WNW,287,5.0,-999.0,79,-99.99,,,-99.99,,2013-01-12 15:33:00,
2013-01-12 08:43:00,-5.0,-10.0,30.36,WNW,287,5.0,-999.0,79,-99.99,,,-99.99,,2013-01-12 15:43:00,
2013-01-12 08:53:00,-5.0,-10.0,30.36,West,275,6.0,-999.0,79,-99.99,,,-99.99,,2013-01-12 15:53:00,
2013-01-12 09:03:00,-4.0,-9.0,30.36,West,267,6.0,-999.0,79,-99.99,,,-99.99,,2013-01-12 16:03:00,
2013-01-12 09:12:00,-4.0,-9.0,30.36,West,267,6.0,-999.0,79,-99.99,,,-99.99,,2013-01-12 16:12:00,
2013-01-12 09:23:00,-2.0,-7.0,30.37,West,264,6.0,-999.0,79,-99.99,,,-99.99,,2013-01-12 16:23:00,
2013-01-12 09:33:00,-1.0,-6.0,30.37,West,272,7.0,-999.0,78,-99.99,,,-99.99,,2013-01-12 16:33:00,
2013-01-12 09:42:00,-1.0,-6.0,30.37,West,272,7.0,-999.0,78,-99.99,,,-99.99,,2013-01-12 16:42:00,
2013-01-12 09:52:00,-2.0,-7.0,30.38,West,273,4.0,-999.0,78,-99.99,,,-99.99,,2013-01-12 16:52:00,
2013-01-12 10:02:00,-2.0,-7.0,30.38,West,273,4.0,-999.0,78,-99.99,,,-99.99,,2013-01-12 17:02:00,
2013-01-12 10:12:00,-2.0,-7.0,30.38,West,273,4.0,-999.0,78,-99.99,,,-99.99,,2013-01-12 17:12:00,
2013-01-12 10:22:00,-2.0,-7.0,30.39,West,273,3.0,-999.0,78,-99.99,,,-99.99,,2013-01-12 17:22:00,
2013-01-12 10:33:00,-2.0,-7.0,30.39,West,273,3.0,-999.0,78,-99.99,,,-99.99,,2013-01-12 17:33:00,
2013-01-12 10:43:00,-2.0,-7.0,30.39,West,273,3.0,-999.0,78,-99.99,,,-99.99,,2013-01-12 17:43:00,
2013-01-12 10:53:00,-1.0,-6.0,30.40,WNW,287,2.0,-999.0,79,-99.99,,,-99.99,,2013-01-12 17:53:00,
2013-01-12 11:03:00,0.0,-5.0,30.40,West,281,4.0,-999.0,77,-99.99,,,-99.99,,2013-01-12 18:03:00,
2013-01-12 11:12:00,0.0,-5.0,30.40,West,281,4.0,-999.0,77,-99.99,,,-99.99,,2013-01-12 18:12:00,
2013-01-12 11:23:00,0.0,-5.0,30.39,WNW,282,4.0,-999.0,77,-99.99,,,-99.99,,2013-01-12 18:23:00,
2013-01-12 11:33:00,0.0,-5.0,30.39,West,281,5.0,-999.0,77,-99.99,,,-99.99,,2013-01-12 18:33:00,
2013-01-12 11:42:00,0.0,-5.0,30.39,West,281,5.0,-999.0,77,-99.99,,,-99.99,,2013-01-12 18:42:00,
2013-01-12 11:52:00,0.0,-5.0,30.38,West,276,4.0,-999.0,77,-99.99,,,-99.99,,2013-01-12 18:52:00,
2013-01-12 12:03:00,1.0,-5.0,30.37,West,271,9.0,-999.0,76,-99.99,,,-99.99,,2013-01-12 19:03:00,
2013-01-12 12:12:00,1.0,-5.0,30.37,West,271,9.0,-999.0,76,-99.99,,,-99.99,,2013-01-12 19:12:00,
2013-01-12 12:23:00,1.0,-5.0,30.37,WNW,284,8.0,-999.0,76,-99.99,,,-99.99,,2013-01-12 19:23:00,
2013-01-12 12:33:00,2.0,-4.0,30.37,WNW,291,6.0,-999.0,75,-99.99,,,-99.99,,2013-01-12 19:33:00,
2013-01-12 12:43:00,2.0,-4.0,30.37,WNW,291,6.0,-999.0,75,-99.99,,,-99.99,,2013-01-12 19:43:00,
2013-01-12 12:52:00,2.0,-4.0,30.37,WNW,300,4.0,-999.0,76,-99.99,,,-99.99,,2013-01-12 19:52:00,
2013-01-12 13:03:00,3.0,-3.0,30.37,WNW,297,6.0,-999.0,75,-99.99,,,-99.99,,2013-01-12 20:03:00,
2013-01-12 13:12:00,3.0,-3.0,30.37,WNW,297,6.0,-999.0,75,-99.99,,,-99.99,,2013-01-12 20:12:00,
2013-01-12 13:22:00,3.0,-3.0,30.37,WNW,290,6.0,-999.0,74,-99.99,,,-99.99,,2013-01-12 20:22:00,
2013-01-12 13:33:00,4.0,-2.0,30.37,WNW,294,6.0,-999.0,75,-99.99,,,-99.99,,2013-01-12 20:33:00,
2013-01-12 13:42:00,4.0,-2.0,30.37,WNW,294,6.0,-999.0,75,-99.99,,,-99.99,,2013-01-12 20:42:00,
2013-01-12 13:53:00,4.0,-2.0,30.38,WNW,298,6.0,-999.0,75,-99.99,,,-99.99,,2013-01-12 20:53:00,
2013-01-12 14:03:00,4.0,-2.0,30.38,WNW,289,6.0,-999.0,75,-99.99,,,-99.99,,2013-01-12 21:03:00,
2013-01-12 14:12:00,4.0,-2.0,30.38,WNW,289,6.0,-999.0,75,-99.99,,,-99.99,,2013-01-12 21:12:00,
2013-01-12 14:22:00,5.0,-1.0,30.38,WNW,296,6.0,-999.0,76,-99.99,,,-99.99,,2013-01-12 21:22:00,
2013-01-12 14:33:00,6.0,0.0,30.39,WNW,295,2.0,-999.0,76,-99.99,,,-99.99,,2013-01-12 21:33:00,
2013-01-12 14:43:00,6.0,0.0,30.39,WNW,295,2.0,-999.0,76,-99.99,,,-99.99,,2013-01-12 21:43:00,
2013-01-12 14:52:00,6.0,0.0,30.38,WNW,295,2.0,-999.0,76,-99.99,,,-99.99,,2013-01-12 21:52:00,
2013-01-12 15:03:00,5.0,-1.0,30.39,WNW,296,2.0,-999.0,76,-99.99,,,-99.99,,2013-01-12 22:03:00,
2013-01-12 15:12:00,5.0,-1.0,30.39,WNW,296,2.0,-999.0,76,-99.99,,,-99.99,,2013-01-12 22:12:00,
2013-01-12 15:22:00,5.0,-1.0,30.39,WNW,296,1.0,-999.0,76,-99.99,,,-99.99,,2013-01-12 22:22:00,
2013-01-12 15:33:00,5.0,-1.0,30.39,WNW,296,2.0,-999.0,76,-99.99,,,-99.99,,2013-01-12 22:33:00,
2013-01-12 15:43:00,5.0,-1.0,30.39,WNW,296,2.0,-999.0,76,-99.99,,,-99.99,,2013-01-12 22:43:00,
2013-01-12 15:52:00,5.0,-1.0,30.39,WNW,296,1.0,-999.0,76,-99.99,,,-99.99,,2013-01-12 22:52:00,
2013-01-12 16:03:00,5.0,-1.0,30.39,WNW,296,1.0,-999.0,76,-99.99,,,-99.99,,2013-01-12 23:03:00,
2013-01-12 16:12:00,5.0,-1.0,30.39,WNW,296,1.0,-999.0,76,-99.99,,,-99.99,,2013-01-12 23:12:00,
2013-01-12 16:22:00,3.0,-3.0,30.39,WNW,296,1.0,-999.0,76,-99.99,,,-99.99,,2013-01-12 23:22:00,
2013-01-12 16:33:00,2.0,-4.0,30.39,WNW,296,0.0,-999.0,75,-99.99,,,-99.99,,2013-01-12 23:33:00,
2013-01-12 16:43:00,2.0,-4.0,30.39,WNW,296,0.0,-999.0,75,-99.99,,,-99.99,,2013-01-12 23:43:00,
2013-01-12 16:53:00,1.0,-5.0,30.39,WNW,296,0.0,-999.0,75,-99.99,,,-99.99,,2013-01-12 23:53:00,
2013-01-12 17:03:00,0.0,-6.0,30.39,WNW,296,0.0,-999.0,76,-99.99,,,-99.99,,2013-01-13 00:03:00,
2013-01-12 17:12:00,0.0,-6.0,30.39,WNW,296,0.0,-999.0,76,-99.99,,,-99.99,,2013-01-13 00:12:00,
2013-01-12 17:23:00,0.0,-6.0,30.39,WNW,296,0.0,-999.0,76,-99.99,,,-99.99,,2013-01-13 00:23:00,
2013-01-12 17:33:00,-2.0,-8.0,30.38,WNW,296,1.0,-999.0,76,-99.99,,,-99.99,,2013-01-13 00:33:00,
2013-01-12 17:43:00,-2.0,-8.0,30.38,WNW,296,1.0,-999.0,76,-99.99,,,-99.99,,2013-01-13 00:43:00,
2013-01-12 17:52:00,-2.0,-7.0,30.39,WNW,296,2.0,-999.0,78,-99.99,,,-99.99,,2013-01-13 00:52:00,
2013-01-12 18:02:00,-1.0,-6.0,30.39,WNW,296,1.0,-999.0,78,-99.99,,,-99.99,,2013-01-13 01:02:00,
2013-01-12 18:12:00,-1.0,-6.0,30.39,WNW,296,1.0,-999.0,78,-99.99,,,-99.99,,2013-01-13 01:12:00,
2013-01-12 18:22:00,-1.0,-6.0,30.39,WNW,296,1.0,-999.0,78,-99.99,,,-99.99,,2013-01-13 01:22:00,
2013-01-12 18:33:00,-1.0,-6.0,30.38,WNW,296,1.0,-999.0,79,-99.99,,,-99.99,,2013-01-13 01:33:00,
2013-01-12 18:43:00,-1.0,-6.0,30.38,WNW,296,1.0,-999.0,79,-99.99,,,-99.99,,2013-01-13 01:43:00,
2013-01-12 18:52:00,-1.0,-7.0,30.38,WNW,296,1.0,-999.0,76,-99.99,,,-99.99,,2013-01-13 01:52:00,
2013-01-12 19:02:00,-2.0,-7.0,30.37,WNW,296,1.0,-999.0,77,-99.99,,,-99.99,,2013-01-13 02:02:00,
2013-01-12 19:12:00,-2.0,-7.0,30.37,WNW,296,1.0,-999.0,77,-99.99,,,-99.99,,2013-01-13 02:12:00,
2013-01-12 19:22:00,-3.0,-8.0,30.37,WNW,296,3.0,-999.0,77,-99.99,,,-99.99,,2013-01-13 02:22:00,
2013-01-12 19:32:00,-3.0,-8.0,30.37,WNW,296,2.0,-999.0,78,-99.99,,,-99.99,,2013-01-13 02:32:00,
2013-01-12 19:42:00,-3.0,-8.0,30.37,WNW,296,2.0,-999.0,78,-99.99,,,-99.99,,2013-01-13 02:42:00,
2013-01-12 19:52:00,-4.0,-10.0,30.37,WNW,296,2.0,-999.0,76,-99.99,,,-99.99,,2013-01-13 02:52:00,
2013-01-12 20:02:00,-4.0,-10.0,30.37,WNW,296,2.0,-999.0,76,-99.99,,,-99.99,,2013-01-13 03:02:00,
2013-01-12 20:12:00,-4.0,-10.0,30.37,WNW,296,2.0,-999.0,76,-99.99,,,-99.99,,2013-01-13 03:12:00,
2013-01-12 20:22:00,-6.0,-11.0,30.37,WNW,296,4.0,-999.0,77,-99.99,,,-99.99,,2013-01-13 03:22:00,
2013-01-12 20:33:00,-5.0,-10.0,30.37,WNW,296,2.0,-999.0,80,-99.99,,,-99.99,,2013-01-13 03:33:00,
2013-01-12 20:43:00,-5.0,-10.0,30.37,WNW,296,2.0,-999.0,80,-99.99,,,-99.99,,2013-01-13 03:43:00,
2013-01-12 20:52:00,-4.0,-9.0,30.36,WNW,296,0.0,-999.0,78,-99.99,,,-99.99,,2013-01-13 03:52:00,
2013-01-12 21:02:00,-5.0,-10.0,30.36,WNW,296,1.0,-999.0,78,-99.99,,,-99.99,,2013-01-13 04:02:00,
2013-01-12 21:12:00,-5.0,-10.0,30.36,WNW,296,1.0,-999.0,78,-99.99,,,-99.99,,2013-01-13 04:12:00,
2013-01-12 21:22:00,-5.0,-10.0,30.36,WNW,296,3.0,-999.0,78,-99.99,,,-99.99,,2013-01-13 04:22:00,
2013-01-12 21:33:00,-6.0,-11.0,30.36,WNW,296,0.0,-999.0,78,-99.99,,,-99.99,,2013-01-13 04:33:00,
2013-01-12 21:42:00,-6.0,-11.0,30.36,WNW,296,0.0,-999.0,78,-99.99,,,-99.99,,2013-01-13 04:42:00,
2013-01-12 21:52:00,-7.0,-12.0,30.36,WNW,296,0.0,-999.0,77,-99.99,,,-99.99,,2013-01-13 04:52:00,
2013-01-12 22:03:00,-8.0,-14.0,30.36,WNW,296,0.0,-999.0,76,-99.99,,,-99.99,,2013-01-13 05:03:00,
2013-01-12 22:12:00,-8.0,-14.0,30.36,WNW,296,0.0,-999.0,76,-99.99,,,-99.99,,2013-01-13 05:12:00,
2013-01-12 22:22:00,-9.0,-15.0,30.36,WNW,296,1.0,-999.0,75,-99.99,,,-99.99,,2013-01-13 05:22:00,
2013-01-12 22:32:00,-12.0,-17.0,30.36,WNW,296,3.0,-999.0,76,-99.99,,,-99.99,,2013-01-13 05:32:00,
2013-01-12 22:42:00,-12.0,-17.0,30.36,WNW,296,3.0,-999.0,76,-99.99,,,-99.99,,2013-01-13 05:42:00,
2013-01-12 22:52:00,-11.0,-16.0,30.37,WNW,296,2.0,-999.0,78,-99.99,,,-99.99,,2013-01-13 05:52:00,
2013-01-12 23:03:00,-10.0,-15.0,30.37,WNW,296,2.0,-999.0,79,-99.99,,,-99.99,,2013-01-13 06:03:00,
2013-01-12 23:12:00,-10.0,-15.0,30.37,WNW,296,2.0,-999.0,79,-99.99,,,-99.99,,2013-01-13 06:12:00,
2013-01-12 23:22:00,-11.0,-16.0,30.37,WNW,296,0.0,-999.0,77,-99.99,,,-99.99,,2013-01-13 06:22:00,
2013-01-12 23:32:00,-11.0,-16.0,30.37,WNW,296,0.0,-999.0,79,-99.99,,,-99.99,,2013-01-13 06:32:00,
2013-01-12 23:42:00,-11.0,-16.0,30.37,WNW,296,0.0,-999.0,79,-99.99,,,-99.99,,2013-01-13 06:42:00,
2013-01-12 23:52:00,-9.0,-14.0,30.37,WNW,296,2.0,-999.0,79,-99.99,,,-99.99,,2013-01-13 06:52:00,